Theta_e
328 328 329 330 330 330 326 325 325 326 326 326 327 328 329 329 329 328 329 330 331 331 329 329 329 330 329 329 329 328 327 328 328 329 329 328 328 328 327 326 325 325 321
326 326 328 330 330 329 327 326 326 327 326 327 328 329 329 329 328 327 328 327 328 328 329 329 330 329 329 328 328 328 328 328 328 328 328 328 327 327 328 326 324 321 317
325 326 329 330 329 330 327 327 328 327 328 327 328 329 329 329 327 325 327 327 327 327 329 330 330 329 329 328 328 328 328 328 327 327 328 328 328 328 328 326 326 325 323
325 325 330 329 328 329 327 326 327 328 328 328 328 328 329 329 328 327 326 327 328 329 328 329 330 329 328 328 328 328 328 328 327 328 328 329 329 329 329 326 325 322 320
323 327 329 329 328 329 325 326 327 327 328 329 327 328 329 328 328 328 327 326 327 329 329 329 330 330 329 329 328 328 327 327 327 327 327 329 328 327 325 321 323 321 322
323 326 327 328 329 329 324 327 328 328 328 329 327 328 330 330 330 327 326 325 328 328 329 329 329 329 329 328 327 326 327 328 328 327 327 326 327 324 321 320 317 320 323
322 324 325 325 328 329 325 328 328 326 327 329 328 327 330 329 329 328 326 326 328 328 329 329 328 327 327 327 328 328 327 329 326 325 325 325 323 320 319 321 322 323 323
322 322 323 322 326 326 327 327 325 324 324 327 328 329 328 328 328 329 328 327 327 328 328 329 329 328 327 328 329 329 326 327 327 325 322 321 322 322 322 322 322 323 323
322 321 321 321 328 325 327 328 326 323 322 326 328 329 329 328 329 329 328 328 328 328 328 328 329 329 328 329 327 324 326 327 326 328 328 326 328 327 326 326 328 328 324
322 321 320 321 329 328 325 326 324 321 321 322 322 326 327 329 330 329 328 328 329 329 328 327 325 325 326 327 322 323 321 320 319 318 319 317 316 317 318 315 313 316 313
321 322 320 320 326 329 326 326 326 323 321 320 321 322 322 326 326 327 325 326 326 325 321 321 322 322 321 321 319 320 319 318 313 315 317 318 318 318 318 318 316 316 316
319 320 321 320 323 327 328 326 325 327 325 320 319 321 322 322 324 325 324 323 322 318 320 319 317 317 319 319 319 319 319 319 318 318 316 320 322 323 320 317 317 315 312
319 319 320 321 323 325 328 327 327 325 326 328 322 319 318 319 320 320 322 324 322 322 322 322 321 321 319 319 322 321 321 319 314 319 322 320 319 317 316 314 308 307 306
319 320 318 320 323 325 328 328 328 329 329 328 327 324 321 319 314 314 314 316 322 320 318 319 320 320 317 320 321 319 317 312 315 320 319 317 316 314 309 307 307 305 304
320 320 318 319 325 328 329 329 329 329 327 329 328 326 322 322 321 317 311 313 316 317 317 314 311 311 314 317 317 310 306 308 318 317 315 312 308 306 306 306 304 304 304
321 320 318 321 327 328 329 328 328 327 325 326 327 325 324 322 321 320 314 310 312 314 315 311 308 305 309 313 310 307 313 311 317 315 310 306 306 306 305 303 304 304 303
323 322 319 322 326 327 327 326 325 326 325 323 323 325 324 322 322 321 319 308 310 314 315 311 308 305 305 305 304 308 314 316 314 310 306 306 305 304 303 303 303 302 302
324 323 319 322 324 325 326 326 325 324 324 324 324 323 324 323 322 321 320 308 311 313 313 312 309 309 307 305 305 308 314 313 309 307 306 305 303 303 303 302 302 301 300
325 323 320 320 323 324 325 325 325 324 324 324 322 322 319 317 321 322 321 314 308 314 316 315 315 315 314 313 314 314 315 310 308 307 304 303 303 302 302 301 299 298 297
325 324 322 319 322 322 323 323 324 323 322 322 321 322 318 316 317 318 318 315 306 309 313 316 317 317 316 318 318 314 311 308 307 303 302 302 302 301 300 299 297 296 296
326 325 323 321 320 321 321 322 321 322 321 320 322 322 321 318 317 317 318 315 310 306 308 311 312 313 313 315 315 311 309 306 303 302 302 302 301 300 299 297 296 295 295
328 324 323 323 322 320 320 321 321 320 320 320 321 321 320 318 317 317 317 317 317 313 308 307 310 312 314 316 313 309 307 303 301 301 301 300 299 299 297 296 294 294 294
329 326 323 323 322 323 322 321 320 320 319 319 319 319 318 316 315 316 316 315 315 314 312 311 312 313 314 312 309 308 305 301 301 300 298 298 298 297 296 294 293 292 290
330 328 325 324 323 322 321 322 322 321 320 319 319 318 318 318 315 314 314 314 314 315 314 313 313 312 311 309 305 304 301 300 300 299 299 298 298 296 294 293 292 290 289
330 329 327 326 324 323 323 322 322 322 321 320 319 318 318 318 316 313 313 312 312 313 313 312 311 311 310 308 303 301 300 300 299 298 298 297 297 295 293 291 290 289 288
329 330 330 328 326 325 324 324 324 324 324 324 323 322 319 317 314 313 312 311 311 311 311 310 309 308 306 304 301 299 299 298 298 298 298 296 295 293 291 290 289 288 286
Wind_Speed
10 8 7 8 6 6 7 8 9 8 8 10 10 11 13 14 18 18 18 17 16 19 21 21 26 27 29 29 27 30 29 21 14 15 21 19 18 18 14 11 9 10 10
11 8 7 8 9 10 8 9 9 8 11 10 12 13 15 20 20 21 18 16 17 16 19 23 27 28 29 28 29 30 27 24 23 17 19 18 17 15 14 13 10 6 8
13 10 11 9 9 8 8 9 10 12 13 14 13 14 17 22 21 19 17 17 16 16 19 25 25 29 29 30 26 26 25 28 25 22 17 18 18 21 16 12 10 10 9
17 12 16 11 8 9 9 10 14 14 15 15 14 17 16 19 19 20 19 17 16 18 20 23 25 27 31 29 30 26 26 28 23 18 15 16 15 12 11 16 16 10 10
20 16 15 13 11 11 12 13 13 16 15 13 16 15 15 17 19 21 19 16 14 16 20 23 26 28 31 30 29 26 25 24 21 18 12 9 13 14 17 13 13 10 12
23 19 16 15 12 14 17 18 17 14 13 14 16 15 12 15 18 18 20 17 15 20 19 20 21 25 23 21 23 21 19 21 21 20 18 16 19 19 15 12 12 9 2
26 23 19 12 13 21 21 19 19 15 16 18 17 14 13 15 18 20 21 18 14 17 19 24 24 25 23 21 22 17 11 16 17 20 20 19 16 17 17 16 13 12 13
29 25 22 14 19 20 22 20 17 18 17 17 18 17 16 15 17 19 22 22 20 19 21 25 28 30 25 23 18 13 14 16 20 19 15 12 13 11 14 12 13 11 12
31 28 26 18 20 18 21 22 22 17 19 19 19 17 16 16 15 18 23 22 20 21 21 19 22 27 24 20 16 16 15 15 11 6 15 10 4 7 7 9 6 5 2
32 32 29 24 22 21 22 26 24 19 19 19 18 17 16 17 18 20 20 20 20 19 19 17 18 21 21 20 20 17 14 12 10 10 12 8 5 4 3 3 3 4 4
37 35 32 30 26 23 24 24 24 22 20 19 18 18 17 17 20 19 19 21 23 20 20 20 19 19 19 19 17 15 11 9 8 8 7 4 2 4 5 5 6 5 7
34 36 35 34 32 28 28 25 22 21 22 20 20 19 18 17 18 19 19 18 21 24 22 20 18 18 17 15 13 12 10 9 7 4 2 4 7 9 12 12 10 9 10
34 33 38 36 35 32 32 29 26 23 21 21 22 22 21 21 19 17 16 19 19 20 19 19 18 18 16 14 13 12 11 11 9 11 16 19 19 19 17 15 15 18 21
36 33 37 38 34 35 34 36 31 28 25 22 21 26 24 21 22 22 20 17 21 19 16 18 19 19 18 16 16 15 11 10 11 21 23 21 18 15 14 18 20 21 21
37 34 35 37 37 35 35 37 36 32 31 27 27 29 29 26 25 24 26 23 19 19 17 20 22 22 22 20 17 13 11 11 18 23 22 21 19 20 19 17 18 17 17
31 31 33 32 32 32 34 31 34 32 28 28 24 26 29 25 23 24 25 25 22 22 23 26 27 27 28 27 21 15 10 14 25 24 24 25 25 23 22 18 18 19 17
32 31 30 31 30 29 28 28 26 27 26 25 25 25 28 26 25 26 26 29 27 24 28 31 32 32 31 28 22 19 18 25 28 28 27 24 23 20 21 19 21 17 17
35 36 34 32 30 30 31 30 29 29 26 27 29 30 25 28 28 28 29 31 30 29 29 33 32 30 28 24 22 22 24 31 30 28 25 25 23 24 25 21 15 17 15
35 35 34 34 34 34 33 31 31 31 29 29 26 29 29 21 28 32 34 38 38 36 36 35 34 31 27 24 25 26 32 37 34 29 28 27 26 25 22 18 16 12 12
34 36 36 31 30 32 30 29 28 28 30 32 30 32 29 27 23 31 37 39 38 37 41 41 38 33 28 27 29 34 40 38 35 33 31 28 26 23 22 20 14 12 12
31 36 38 31 30 33 31 29 29 29 28 30 36 35 35 33 31 32 39 44 43 43 44 45 42 37 33 32 35 43 45 41 37 34 31 26 24 23 20 15 14 12 11
30 33 35 31 31 29 30 32 32 29 31 30 35 39 40 39 37 36 38 45 49 46 42 42 37 35 35 38 42 49 47 43 40 35 32 31 28 24 20 16 13 13 13
31 31 32 28 30 33 35 31 31 29 29 35 33 33 35 40 40 42 43 41 44 43 40 35 34 35 34 36 44 49 49 47 42 39 37 32 22 21 22 18 16 15 11
32 31 32 30 28 30 29 35 36 36 33 35 37 34 35 38 40 42 42 41 41 44 43 38 37 37 37 37 36 40 39 41 40 36 30 27 25 25 21 18 16 14 11
29 27 28 29 28 30 27 32 34 37 35 35 32 34 37 40 40 40 39 37 38 36 37 36 35 36 40 42 43 38 36 32 30 27 26 26 26 22 19 17 16 13 10
13 25 27 26 26 26 27 30 33 37 37 37 34 33 35 37 38 37 34 33 36 37 34 34 37 41 42 44 43 43 39 30 25 20 24 25 25 22 19 18 15 12 10
Wind_Direction
188 195 170 152 148 147 143 145 145 138 153 165 167 159 155 155 153 154 143 145 127 121 132 139 142 146 139 140 140 143 137 147 128 122 152 156 158 158 164 180 192 205 205
165 162 152 146 136 139 147 159 153 142 144 149 154 152 150 155 153 150 145 138 128 127 136 143 139 143 141 145 144 143 147 147 136 125 156 164 168 178 183 181 186 191 214
169 152 145 140 136 138 134 153 151 144 139 141 147 149 149 158 155 147 142 145 144 140 145 148 148 148 141 145 144 143 149 145 143 142 150 157 174 192 190 196 204 224 235
171 157 148 154 146 145 126 130 152 143 137 143 146 151 149 157 159 157 152 143 141 142 153 155 149 150 148 149 144 142 145 145 147 154 167 182 193 182 197 201 214 222 239
169 156 158 165 157 145 135 127 144 153 148 148 150 154 160 166 167 168 164 163 163 150 154 160 161 157 160 157 146 137 146 156 165 183 192 176 186 198 208 207 217 238 254
169 164 165 177 164 156 150 134 135 142 143 151 158 160 162 175 170 168 163 157 166 155 143 157 147 149 149 150 157 164 170 177 183 187 186 194 201 209 212 220 217 233 298
171 172 172 177 162 163 166 147 147 147 145 149 160 162 151 154 158 154 154 153 151 150 148 150 151 150 147 157 164 176 202 198 188 191 194 197 200 212 216 218 221 231 244
174 176 180 173 162 158 175 166 159 151 148 145 148 150 150 152 159 163 163 164 167 162 162 159 162 165 172 176 181 212 208 200 206 211 210 205 220 223 230 236 247 256 269
178 179 182 182 174 156 151 166 166 157 151 148 148 145 152 158 160 164 163 162 157 170 169 164 167 178 190 199 190 155 142 153 169 201 224 224 217 231 232 230 213 155 139
180 181 181 182 179 176 152 155 163 161 156 163 156 156 155 162 169 173 176 172 171 176 178 177 180 185 186 183 174 161 145 142 149 144 148 157 163 177 206 268 243 218 137
187 185 184 185 188 186 180 165 163 168 163 167 170 169 164 158 171 179 175 169 165 170 170 168 167 165 167 176 192 187 183 169 153 145 142 153 156 105 118 131 138 126 119
186 190 191 190 189 187 188 185 180 168 174 178 177 179 181 174 166 164 171 173 174 170 174 177 180 181 183 182 183 182 176 164 144 148 157 125 137 146 137 122 109 100 94
188 191 195 196 192 189 186 187 185 187 184 181 195 189 192 195 191 184 185 192 186 185 187 188 188 189 190 188 185 179 170 160 161 146 134 129 121 122 124 116 108 104 99
192 193 195 194 194 191 189 190 190 190 193 197 196 201 196 197 203 203 199 196 202 204 204 199 197 194 192 185 180 181 177 176 178 148 134 131 130 131 126 125 125 119 106
193 194 189 189 190 188 189 189 193 198 198 201 207 205 201 202 206 208 205 204 204 205 203 191 188 190 191 194 194 189 188 182 162 153 145 139 135 135 127 120 112 109 104
186 186 184 183 183 183 185 193 199 205 207 213 214 213 210 218 217 212 213 209 208 205 195 190 193 195 198 202 199 187 183 179 168 161 152 147 141 130 123 126 123 110 107
186 184 181 180 178 177 183 187 192 206 210 214 215 218 218 223 222 218 213 209 208 206 200 198 200 201 206 206 200 196 177 173 169 161 153 144 137 133 137 133 120 113 104
190 189 181 182 182 182 185 190 192 195 203 213 215 219 221 228 228 222 215 205 198 204 206 205 207 209 213 212 207 207 191 173 167 157 152 149 148 146 136 124 117 115 113
188 185 184 184 186 188 188 191 194 200 204 211 213 218 221 225 224 225 215 205 202 207 210 212 215 217 216 214 210 200 184 172 165 160 155 153 150 145 131 120 115 115 112
192 191 185 183 185 187 188 189 195 200 207 211 215 218 214 218 217 214 208 206 208 211 215 219 220 219 215 213 206 192 177 168 165 162 158 155 153 153 137 135 139 119 95
191 189 186 182 187 191 192 194 198 201 206 210 218 221 219 215 211 215 211 209 214 216 218 221 221 220 219 212 197 183 175 171 168 162 155 150 147 133 131 142 130 109 98
188 187 184 186 192 194 198 200 201 202 207 212 221 225 224 219 220 216 220 216 219 223 224 226 220 217 212 204 193 180 174 171 169 162 157 155 153 149 151 149 130 112 106
186 187 190 193 193 198 201 201 203 205 208 216 221 225 222 221 223 225 225 224 221 222 223 222 216 210 207 202 190 183 176 172 167 162 159 153 159 151 151 142 131 118 101
190 190 190 193 197 201 200 202 206 210 209 215 220 220 226 227 225 230 232 229 224 220 218 213 211 205 195 189 186 179 174 170 167 162 154 151 158 156 149 137 131 119 103
201 194 194 196 202 204 203 210 210 215 219 223 222 223 228 233 228 228 229 225 218 207 201 199 195 192 190 185 177 174 166 162 157 154 155 165 161 156 148 143 137 123 111
169 204 210 206 205 211 214 215 216 216 218 225 226 224 227 226 224 218 214 205 200 199 195 190 187 183 181 174 167 156 152 156 154 159 169 166 161 155 152 145 138 127 122